Regional Weather Roundup
Issued by NWS

Home | Current Version | Previous Version | Graphics & Text | Print | Product List | Glossary On
Versions: 1 2 3 4 5 6 7 8 9 10 11 12 13 14 15 16 17 18 19 20 21 22 23 24 25 26 27 28 29 30 31 32 33 34 35 36 37 38 39 40 41 42 43 44 45 46 47 48 49 50
000
ASUS43 KOAX 271402
RWRNE

WEATHER ROUNDUP FOR NEBRASKA
NATIONAL WEATHER SERVICE OMAHA NE
900 AM CDT WED AUG 27 2014

NOTES: SATELLITE DATA IS BEING USED TO AUGMENT CLOUD COVER ABOVE
       12000 FEET.
       "FAIR" INDICATES FEW OR NO CLOUDS BELOW 12,000 FEET WITH NO
       SIGNIFICANT WEATHER AND/OR OBSTRUCTIONS TO VISIBILITY.

  * THESE STATIONS DO NOT REPORT WEATHER SUCH AS RAIN...SNOW OR FOG.

NEZ001>004-019>022-054>056-271500-
NEBRASKA PANHANDLE

CITY           SKY/WX    TMP DP  RH WIND       PRES   REMARKS
SCOTTSBLUFF    CLOUDY    65  63  93 NE8       30.14R
ALLIANCE       LGT RAIN  63  62  97 E3        30.14R
CHADRON        MOSUNNY   65  58  78 N8        30.13S
KIMBALL        FOG       61  61  99 NE5       30.15S VSB 1/4
SIDNEY         MOSUNNY   63  59  87 SE7       30.15R
$$

NEZ057>060-069>072-079>082-271500-
SOUTHWEST NEBRASKA

CITY           SKY/WX    TMP DP  RH WIND       PRES   REMARKS
NORTH PLATTE   CLOUDY    67  64  90 E3        30.14R
IMPERIAL       MOSUNNY   67  63  87 S8        30.13R
LEXINGTON      CLOUDY    69  67  93 CALM      30.13R
MCCOOK         CLOUDY    68  66  93 S8        30.13S
OGALLALA       PTSUNNY   64  61  90 CALM      30.13S
$$

NEZ005>010-023>029-035>040-094-271500-
NORTH CENTRAL NEBRASKA

CITY           SKY/WX    TMP DP  RH WIND       PRES   REMARKS
VALENTINE      CLOUDY    70  67  90 CALM      30.12S
AINSWORTH      PTSUNNY   65  64  97 CALM      30.12F
BROKEN BOW     CLOUDY    71  68  90 E3        30.13R FOG
O`NEILL        CLOUDY    68  67  96 SE7       30.14S
ORD            CLOUDY    69  67  93 NE5       30.09F
THEDFORD       CLOUDY    69  68  97 SE9       30.14S
$$

NEZ041-046>049-061>064-073>077-083>087-271500-
SOUTH CENTRAL NEBRASKA

CITY           SKY/WX    TMP DP  RH WIND       PRES   REMARKS
GRAND ISLAND   CLOUDY    69  67  93 SE7       30.11R
AURORA         CLOUDY    69  69 100 SE5       30.10R
HASTINGS       CLOUDY    69  66  90 SE7       30.10R
HEBRON         CLOUDY    71  67  89 CALM      30.09F
HOLDREGE       PTSUNNY   69  66  92 S3        30.12R
KEARNEY *      CLOUDY    66  66 100 S3        30.11R
YORK           CLOUDY    68 N/A N/A E6        30.09S HAZE
$$

NEZ011>018-030>034-042>045-271500-
NORTHEAST NEBRASKA

CITY           SKY/WX    TMP DP  RH WIND       PRES   REMARKS
NORFOLK        TSTM      66  64  93 NE9       30.15F FOG
ALBION         CLOUDY    65  64  93 NE16      30.12S
BLAIR          CLOUDY    68  66  92 E7        30.11R THUNDER
FREMONT        TSTM      67  66  94 E9        30.14R
TEKAMAH        CLOUDY    68  65  90 NE3       30.13R
WAYNE          LGT RAIN  64  63  97 S7        30.17R
$$

NEZ050>053-065>068-078-088>093-271500-
SOUTHEAST NEBRASKA

CITY           SKY/WX    TMP DP  RH WIND       PRES   REMARKS
LINCOLN        CLOUDY    71  68  90 NE5       30.11R
OMAHA EPPLEY   CLOUDY    69  65  86 E7        30.10F THUNDER
BEATRICE       PTSUNNY   72  71  95 E7        30.08F
FALLS CITY     LGT RAIN  70  68  93 S8        30.11R
NEBRASKA CITY  CLOUDY    69  69 100 E7        30.13R
PLATTSMOUTH    CLOUDY    69  67  94 E12       30.12R THUNDER
$$

NEZ044-045-051>053-067-271500-
OMAHA AREA

CITY           SKY/WX    TMP DP  RH WIND       PRES   REMARKS
OMAHA EPPLEY   CLOUDY    69  65  86 E7        30.10F THUNDER
BLAIR          CLOUDY    68  66  92 E7        30.11R THUNDER
FREMONT        TSTM      67  66  94 E9        30.14R
MILLARD        TSTM      69  66  92 W9        30.13R
PLATTSMOUTH    CLOUDY    69  67  94 E12       30.12R THUNDER
WAHOO          CLOUDY    67  65  91 N3        30.13R
$$



USA.gov is the U.S. government's official web portal to all federal, state and local government web resources and services.